Regional Weather Roundup
Issued by NWS

Home | Current Version | Previous Version | Text Only | Print | Product List | Glossary On
Versions: 1 2 3 4 5 6 7 8 9 10 11 12 13 14 15 16 17 18 19 20 21 22 23 24 25 26 27 28 29 30 31 32 33 34 35 36 37 38 39 40 41 42 43 44 45 46 47 48 49 50
000
ASUS43 KMKX 121000
RWRWI

WISCONSIN REGIONAL WEATHER ROUNDUP
NATIONAL WEATHER SERVICE MILWAUKEE/SULLIVAN WI
500 AM CDT SAT JUL 12 2014

NOTE: "FAIR" INDICATES FEW OR NO CLOUDS BELOW 12,000 FEET WITH NO
SIGNIFICANT WEATHER AND/OR OBSTRUCTIONS TO VISIBILITY.

WIZ001-002-006>008-014>016-023>028-121100-
NORTHWEST WISCONSIN

CITY           SKY/WX    TMP DP  RH WIND       PRES   REMARKS
SUPERIOR ARPT  MOCLDY    63  63 100 SW6       29.97R
ASHLAND        MOCLDY    67  65  93 SW6       29.97S
HAYWARD        FOG       61  61 100 CALM      30.00S VSB 1/4
SIREN          MOCLDY    65  65  97 CALM      29.99R FOG
RICE LAKE      FOG       62  61  96 CALM      30.02R VSB 1
LADYSMITH      CLOUDY    65  64  94 CALM      30.03R
EAU CLAIRE     MOCLDY    68  66  94 S3        30.00R
MENOMONIE      MOSUNNY   68  66  94 CALM      30.01R
NEW RICHMOND   CLEAR     66  66  99 S5        30.01R FOG
OSCEOLA        PTCLDY    68  68 100 SE3       30.02R
$$

WIZ003>005-009-010-017-018-121100-
NORTH CENTRAL WISCONSIN

CITY           SKY/WX    TMP DP  RH WIND       PRES   REMARKS
WOODRUFF       MOCLDY    62  59  91 CALM      30.01S FOG
RHINELANDER    PTCLDY    64  62  93 SW6       30.03S
EAGLE RIVER    PTCLDY    61  61 100 CALM      30.01S FOG
LAND O LAKES   CLOUDY    65  63  93 CALM      30.01F
PHILLIPS       CLOUDY    65  64  96 SW3       30.02R
TOMAHAWK       CLOUDY    64  61  89 CALM      30.03S
MEDFORD        CLOUDY    65  64  93 SW3       30.03R
MERRILL        CLOUDY    64  63  95 CALM      30.02S
$$

WIZ029-030-035-036-043>047-121100-
CENTRAL WISCONSIN

CITY           SKY/WX    TMP DP  RH WIND       PRES   REMARKS
WAUSAU         CLOUDY    67  62  84 SW3       30.02R
MOSINEE        CLOUDY    63  63 100 SW3       30.04R
MARSHFIELD     CLOUDY    67  64  90 SW6       30.04R
STEVENS POINT  CLOUDY    63  60  88 CALM      30.03R
WAUPACA        CLOUDY    64  62  92 CALM      30.03R
WAUTOMA        NOT AVBL
WISC RAPIDS    CLOUDY    68  63  84 SW5       30.04R
CAMP DOUGLAS   NOT AVBL
$$

WIZ011>013-019>022-031-037>040-048>050-121100-
NORTHEAST WISCONSIN

CITY           SKY/WX    TMP DP  RH WIND       PRES   REMARKS
ANTIGO         CLOUDY    63  60  91 CALM      30.03F
STURGEON BAY   CLOUDY    64  55  72 S8        30.02S
GREEN BAY      CLOUDY    67  60  78 CALM      30.02S
MANITOWOC      NOT AVBL
APPLETON       PTCLDY    63  57  82 CALM      30.03S
CLINTONVILLE   CLOUDY    63  59  88 CALM      30.02S
OSHKOSH        MOCLDY    67  61  81 W3        30.02S
$$

WIZ032>034-041-042-053>061-121100-
SOUTHWEST WISCONSIN

CITY           SKY/WX    TMP DP  RH WIND       PRES   REMARKS
LA CROSSE      CLOUDY    70  65  84 SE5       30.02R
SPARTA         CLOUDY    64  62  94 CALM      30.02F
VIROQUA        CLOUDY    68  67  98 CALM      30.05R
BOSCOBEL       PTCLDY    68  65  90 CALM      30.02R
PRAIRIE DU CHI CLOUDY    68  65  90 CALM      30.02R
PLATTEVILLE    FAIR      67  65  91 CALM      30.03R
$$

WIZ056-057-062-063-064-067-068-121100-
SOUTH CENTRAL WISCONSIN

CITY           SKY/WX    TMP DP  RH WIND       PRES   REMARKS
BARABOO/DELLS  CLOUDY    69  62  78 CALM      30.02S
LONE ROCK      NOT AVBL
WATERTOWN      PTCLDY    66  61  84 SE3       30.01F
MADISON        CLOUDY    71  62  73 S6        30.02R
MIDDLETON      CLOUDY    72  62  71 CALM      30.02S
MONROE         MOCLDY    68  63  83 S8        30.01F
JANESVILLE     LGT RAIN  68  63  83 CALM      30.01S
$$

WIZ051-052-058>065-066-070>072-121100-
SOUTHEAST WISCONSIN

CITY           SKY/WX    TMP DP  RH WIND       PRES   REMARKS
MILWAUKEE      CLOUDY    71  59  65 S7        30.03F
WAUKESHA       CLOUDY    66  57  72 S6        30.04F
MILWAUKEE/TIMM CLOUDY    68  57  68 S6        30.03F
RACINE         MOCLDY    70  60  70 SE3       30.05F
BURLINGTON     MOCLDY    67  60  77 CALM      30.03F
KENOSHA        CLOUDY    70  61  73 SW5       30.04F
FOND DU LAC    CLOUDY    68  61  78 S5        30.03S
SHEBOYGAN      MOCLDY    61  57  87 CALM      30.03F
WEST BEND      CLOUDY    63  55  77 CALM      30.03F
JUNEAU         CLOUDY    68  46  45 S7        30.04S
$$

LSZ147-162-121100-
LAKE SUPERIOR

STATION/POSITION TIME  TEMP    WIND        PRES    WAVE
                       AIR SEA DIR/SP/G            HT/PER
                 (UTC) (F)     (DEG/KT/KT) (MB)    (FT/S)
W MID LAKE BUOY  0850   49 38  240/ 10/ 10 1013.8F   1
PORT WING        0900   59      CALM  /  1 1014.6
SAXON HARBOR     0900          180/  7/  9 1014.2F
$$

LMZ867-665-643>646-121100-
LAKE MICHIGAN

STATION/POSITION TIME  TEMP    WIND        PRES    WAVE
                       AIR SEA DIR/SP/G            HT/PER
                 (UTC) (F)     (DEG/KT/KT) (MB)    (FT/S)
N MID LAKE BUOY  0850   56 53  200/ 14/ 14 1016.0F   2/ 4
NORTHPORT PIER   0900   62     150/  4/  7 1015.9F
KEWAUNEE LAKESHO 0900   54     180/  4/  7 1017.5F
SHEBOYGAN LAKESH 0900   63     190/  7/  8 1017.3F
PORT WASHINGTON  0900   57      CALM  /  2 1017.6F
MILWAUKEE LAKESH 0900   60      40/  1/  3   N/A
S MID LAKE BUOY  0850   64 59  160/  8/ 10 1018.2F   0
KENOSHA   LAKESH 0900   68     180/  7/  7   N/A
$$

TC  - TEMPERATURE IN CELSIUS
VSB - VISIBILITY IN STATUTE MILES
WCI - WIND CHILL INDEX
HX  - HEAT INDEX



USA.gov is the U.S. government's official web portal to all federal, state and local government web resources and services.